Ellensburg, WA
on Wednesday, February 27, 2013

Wednesday
Previous Day Next Day
Daily Summary
 ActualAverage (KYKM)Record (KYKM)
Temperature
Mean Temperature °F 39°F  
Max Temperature 54°F 50°F 65°F (1972)
Min Temperature 25°F 27°F 7°F (1960)
Degree Days
Heating Degree Days 26 26  
Month to date heating degree days 783  
Since 1 July heating degree days 4501  
Cooling Degree Days 0 0  
Month to date cooling degree days 0  
Year to date cooling degree days 0  
Moisture
Dew Point 26°F   
Average Humidity 60    
Maximum Humidity 75    
Minimum Humidity 37    
Precipitation
Precipitation 0.00 in 0.02 in 0.40 in (1976)
Month to date precipitation 0.75  
Year to date precipitation 1.89  
Snow
Snow 0.00 in 0.00 in 4.00 in (1976)
Month to date snowfall 2.5  
Year to date snowfall 7.8  
Since 1 July snowfall 20.8  
Snow Depth in   
Wind
Wind Speed 2 mph   
Max Wind Speed 8 mph   
Max Gust Speed mph   
Visibility 10 miles   
Events     

Key: T is trace of precipitation, MM is missing value
Source: NWS Daily Summary
Time(PST)TemperatureDew PointHumidity Pressure Visibility Wind DirectionWind SpeedGust SpeedPrecipitationEvents Conditions
12:53 AM 33.1°F 21.9°F 64% 30.20 in 10.0 miles Calm Calm - N/A   Partly Cloudy
1:53 AM 32.0°F 21.9°F 66% 30.19 in 10.0 miles Calm Calm - N/A   Scattered Clouds
2:53 AM 26.1°F 19.0°F 75% 30.20 in 10.0 miles North - - N/A   Clear
3:53 AM 25.0°F 18.0°F 75% 30.20 in 10.0 miles ENE 3.5 mph - N/A   Clear
4:53 AM 26.1°F 19.0°F 75% 30.21 in 10.0 miles Calm Calm - N/A   Clear
5:53 AM 25.0°F 18.0°F 75% 30.23 in 10.0 miles East 6.9 mph - N/A   Clear
7:53 AM 28.9°F 21.9°F 75% 30.27 in 10.0 miles Calm Calm - N/A   Mostly Cloudy
8:53 AM 39.0°F 27.0°F 62% 30.29 in 10.0 miles Calm Calm - N/A   Partly Cloudy
9:53 AM 41.0°F 28.9°F 62% 30.29 in 10.0 miles Calm Calm - N/A   Partly Cloudy
10:53 AM 45.0°F 28.9°F 53% 30.28 in 10.0 miles WSW 3.5 mph - N/A   Clear
11:53 AM 48.9°F 27.0°F 43% 30.27 in 10.0 miles Calm Calm - N/A   Clear
12:53 PM 50.0°F 27.0°F 41% 30.26 in 10.0 miles Calm Calm - N/A   Mostly Cloudy
1:53 PM 51.1°F 27.0°F 39% 30.24 in 10.0 miles Calm Calm - N/A   Overcast
2:53 PM 53.1°F 28.0°F 38% 30.23 in 10.0 miles Calm Calm - N/A   Overcast
3:53 PM 54.0°F 28.0°F 37% 30.23 in 10.0 miles Calm Calm - N/A   Overcast
4:53 PM 48.9°F 28.0°F 44% 30.25 in 10.0 miles WNW 8.1 mph - N/A   Partly Cloudy
5:53 PM 45.0°F 30.9°F 58% 30.25 in 10.0 miles NW 8.1 mph - N/A   Overcast
6:53 PM 43.0°F 30.9°F 62% 30.23 in 10.0 miles WNW 5.8 mph - N/A   Mostly Cloudy
7:53 PM 42.1°F 30.9°F 65% 30.24 in 10.0 miles WNW 6.9 mph - N/A   Overcast
8:53 PM 43.0°F 30.9°F 62% 30.24 in 10.0 miles NNW 8.1 mph - N/A   Overcast
9:53 PM 39.0°F 30.0°F 70% 30.25 in 10.0 miles NW 5.8 mph - N/A   Overcast
10:53 PM 41.0°F 30.9°F 67% 30.24 in 10.0 miles Calm Calm - N/A   Overcast
11:53 PM 42.1°F 30.9°F 65% 30.24 in 10.0 miles Calm Calm - N/A   Overcast
Moon Phase
Feb. 27 Mar. 04 Mar. 11 Mar. 19 Mar. 27
Sunrise:06:45 AM (PST) Moon Rise:08:25 PM (PST)
Sunset:05:45 PM (PST) Moon Set:07:12 AM (PST)

Copyright © 2014 The Weather Underground, Inc.